Location: Unspecified
(51.0000°N, 12.0000°E)
Time: 21:12:14
(UTC+01:00)

Envisat - Visible Passes

Search period start: 25 November 2020 00:00
Search period end: 05 December 2020 00:00
Orbit: 764 x 766 km, 98.1° (Epoch: 25 November)

Date Brightness Start Highest point End Pass type
(mag) Time Alt. Az. Time Alt. Az. Time Alt. Az.
25 Nov 5.6 05:03:05 10° NE 05:06:50 20° E 05:10:33 10° SE visible
25 Nov 3.0 06:41:17 10° N 06:46:20 67° WNW 06:51:23 10° SSW visible
25 Nov 5.0 18:01:39 10° SSW 18:06:09 31° W 18:10:41 10° NNW visible
26 Nov 3.5 06:04:27 10° NNE 06:09:31 64° ESE 06:14:34 10° S visible
26 Nov 3.6 17:24:07 10° S 17:29:08 62° WSW 17:34:13 10° NNW visible
27 Nov 4.8 05:27:57 10° NNE 05:32:31 32° E 05:37:03 10° SSE visible
27 Nov 3.4 07:06:52 10° N 07:11:39 42° WNW 07:16:25 10° SW visible
27 Nov 3.0 16:47:16 10° SSE 16:52:19 69° ENE 16:57:23 10° N visible
27 Nov 5.7 18:28:10 10° SW 18:31:51 20° W 18:35:32 10° NW visible
28 Nov 5.9 04:52:05 10° NE 04:55:18 17° E 04:58:30 10° SE visible
28 Nov 2.9 06:29:52 10° NNE 06:34:58 81° WNW 06:40:03 10° SSW visible
28 Nov 4.6 17:49:58 10° SSW 17:54:41 38° W 17:59:27 10° NNW visible
29 Nov 3.9 05:53:07 10° NNE 05:58:06 52° E 06:03:03 10° S visible
29 Nov 3.2 17:12:39 10° S 17:17:44 76° WSW 17:22:50 10° NNW visible
29 Nov 6.2 18:55:41 10° WSW 18:57:38 12° W 18:59:36 10° WNW visible
30 Nov 5.2 05:16:45 10° NE 05:21:02 26° E 05:25:17 10° SSE visible
30 Nov 3.2 06:55:24 10° N 07:00:20 51° WNW 07:05:14 10° SW visible
30 Nov 5.4 18:16:15 10° SW 18:20:20 24° W 18:24:27 10° NW visible
01 Dec 6.1 04:41:17 10° NE 04:43:45 13° E 04:46:12 10° ESE visible
01 Dec 3.1 06:18:28 10° NNE 06:23:35 83° ESE 06:28:40 10° SSW visible
01 Dec 4.1 17:38:21 10° S 17:43:13 47° W 17:48:09 10° NNW visible
02 Dec 4.3 05:41:49 10° NNE 05:46:39 42° E 05:51:27 10° SSE visible
02 Dec 3.0 17:01:15 10° SSE 17:06:20 89° ENE 17:11:27 10° NNW visible
02 Dec 6.1 18:43:12 10° WSW 18:46:05 15° W 18:48:58 10° NW visible
03 Dec 5.5 05:05:37 10° NE 05:09:31 22° E 05:13:24 10° SE visible
03 Dec 3.0 06:43:56 10° N 06:48:58 63° WNW 06:53:59 10° SSW visible
03 Dec 5.1 18:04:26 10° SSW 18:08:50 29° W 18:13:16 10° NNW visible
04 Dec 6.3 04:31:04 10° ENE 04:32:11 11° E 04:33:17 10° E visible
04 Dec 3.4 06:07:05 10° NNE 06:12:11 68° ESE 06:17:14 10° S visible
04 Dec 3.7 17:26:48 10° S 17:31:47 58° W 17:36:50 10° NNW visible
